This is the latest recevied weather packets stored in our database for station/object KB4KY. If no packets are shown the sender has not sent any weather packets the latest 10 day(s).
| Time | Temp. | Humidity | Pressure | Rain* | Wind** | Luminosity | Snow |
|---|---|---|---|---|---|---|---|
| 1778079520 | 13.33° C | 77% | 1012.7 hPa | 0 mm | - | - | - |
| 1778079220 | 13.33° C | 76% | 1012.5 hPa | 0 mm | - | - | - |
| 1778078920 | 12.78° C | 79% | 1012.6 hPa | 0 mm | - | - | - |
| 1778078619 | 12.78° C | 79% | 1012.7 hPa | 0 mm | - | - | - |
| 1778078322 | 12.22° C | 81% | 1012.8 hPa | 0 mm | - | - | - |
| 1778078251 | 10.56° C | 84% | 1012.7 hPa | 0 mm | - | - | - |
| 1778078019 | 11.67° C | 82% | 1012.6 hPa | 0 mm | - | - | - |
| 1778077719 | 11.11° C | 83% | 1012.7 hPa | 0 mm | - | - | - |
| 1778077418 | 11.11° C | 85% | 1012.8 hPa | 0 mm | - | - | - |
| 1778077118 | 10.56° C | 84% | 1012.8 hPa | 0 mm | - | - | - |
| 1778076818 | 10.56° C | 84% | 1012.7 hPa | 0 mm | - | - | - |
| 1778076517 | 10.56° C | 85% | 1012.7 hPa | 0 mm | - | - | - |
| 1778076218 | 10.56° C | 86% | 1012.7 hPa | 0 mm | - | - | - |
| 1778075917 | 10° C | 87% | 1012.6 hPa | 0 mm | - | - | - |
| 1778075618 | 10° C | 87% | 1012.5 hPa | 0 mm | - | - | - |
| 1778075319 | 10° C | 87% | 1012.5 hPa | 0 mm | - | - | - |
| 1778075016 | 10° C | 87% | 1012.2 hPa | 0 mm | - | - | - |
| 1778074716 | 9.44° C | 88% | 1012 hPa | 0 mm | - | - | - |
| 1778074415 | 9.44° C | 88% | 1012.2 hPa | 0 mm | - | - | - |
| 1778074116 | 9.44° C | 88% | 1012.3 hPa | 0 mm | - | - | - |
| 1778073816 | 9.44° C | 89% | 1012 hPa | 0 mm | - | - | - |
| 1778073515 | 9.44° C | 89% | 1012.1 hPa | 0 mm | - | - | - |
| 1778073215 | 9.44° C | 90% | 1011.9 hPa | 0 mm | - | - | - |
| 1778072914 | 9.44° C | 91% | 1012 hPa | 0 mm | - | - | - |
| 1778072614 | 9.44° C | 91% | 1011.7 hPa | 0 mm | - | - | - |
* Rain latest hour (hover to see other rain measurements)
** Current wind speed in m/s (hover to see current wind gust speed)